Flag for Norway Weather past 2 weeks in Fredrikstad, Norway

Now
54 °F

Low clouds.


Feels Like: 49 °F
Forecast: 52 / 55 °F
Wind: 15 mph from South

Location: Rygge

Current Time: Oct 24, 2014 at 5:43:34 PM

Latest Report: Oct 24, 2014 at 4:50 PM


Visibility: 5 mi

Pressure: 29.83 "Hg

Humidity: 100%

Dew point: 54 °F

Location of FredrikstadLocation

Historic Weather in Fredrikstad — Graph

°F

Fredrikstad temperature yesterday

Maximum temperature yesterday: 52 °F (at 7:20 PM)
Minimum temperature yesterday: 41 °F (at 12:20 AM)
Average temperature yesterday: 46 °F

Past Weeks' High & Low Weather Summary

 TemperatureHumidityPressure
High61 °F (Oct 20, 3:50 PM)100% (Oct 10, 6:20 AM)30.09 "Hg (Oct 10, 6:20 AM)
Low34 °F (Oct 13, 6:50 AM)59% (Oct 20, 3:50 PM)29.30 "Hg (Oct 20, 4:20 AM)
Average47 °F92%29.80 "Hg
* Reported Oct 9 4:20 PM — Oct 24 4:50 PM, Fredrikstad, Weather by CustomWeather, © 2014

Note: Actual official high and low records may vary slightly from our data, if they occured in-between our weather recording intervals... More about our weather records

Advertising

Fredrikstad weather history for previous 24 hours

 ConditionsComfort  
Time TempWeatherWind HumidityBarometerVisibility
4:50 PM
Oct 24
54 °FLow clouds.15 mph100%29.83 "Hg5 mi
4:20 PM54 °FLight rain. Low clouds.16 mph100%29.83 "Hg3 mi
3:50 PM54 °FRain. Low clouds.15 mph100%29.83 "Hg2 mi
3:20 PM54 °FLight rain. Low clouds.17 mph100%29.83 "Hg2 mi
2:50 PM54 °FLight rain. Low clouds.18 mph100%29.83 "Hg2 mi
2:20 PM54 °FDrizzle. Low clouds.18 mph100%29.83 "Hg2 mi
1:50 PM54 °FLight rain. Low clouds.20 mph100%29.83 "Hg3 mi
1:20 PM54 °FLight rain. Low clouds.20 mph100%29.86 "Hg2 mi
12:50 PM54 °FLight rain. Low clouds.20 mph100%29.86 "Hg3 mi
12:20 PM54 °FLight rain. Low clouds.22 mph100%29.86 "Hg2 mi
11:50 AM54 °FLight rain. Fog.21 mph94%29.86 "Hg2 mi
11:20 AM54 °FRain. Fog.20 mph94%29.86 "Hg2 mi
10:50 AM54 °FRain. Fog.20 mph94%29.86 "Hg2 mi
10:20 AM54 °FRain. Fog.21 mph94%29.86 "Hg2 mi
9:50 AM54 °FLight rain. Partly sunny.18 mph94%29.86 "Hg4 mi
9:20 AM54 °FDrizzle. Low clouds.21 mph94%29.89 "Hg3 mi
8:50 AM54 °FDrizzle. Fog.16 mph94%29.89 "Hg2 mi
8:20 AM54 °FPassing clouds.20 mph94%29.89 "Hg5 mi
7:50 AM54 °FLight rain. Fog.18 mph94%29.89 "Hg2 mi
7:20 AM54 °FLight rain. Low clouds.21 mph94%29.89 "Hg4 mi
6:50 AM52 °FLow clouds.20 mph100%29.89 "Hg3 mi
6:20 AM54 °FPassing clouds.20 mph94%29.89 "Hg6 mi
5:50 AM54 °FLow clouds.18 mph94%29.89 "Hg4 mi
5:20 AM54 °FMostly cloudy.17 mph88%29.89 "HgN/A
4:50 AM54 °FPartly cloudy.20 mph94%29.89 "HgN/A
4:20 AM54 °FLow clouds.17 mph94%29.89 "Hg6 mi
3:50 AM52 °FMostly cloudy.14 mph94%29.92 "HgN/A
3:20 AM52 °FPartly cloudy.13 mph94%29.92 "HgN/A
2:50 AM52 °FDrizzle. Low clouds.15 mph94%29.92 "Hg3 mi
2:20 AM52 °FDrizzle. Mostly cloudy.14 mph94%29.92 "Hg3 mi
1:50 AM52 °FDrizzle. Dense fog.15 mph94%29.92 "Hg2 mi
1:20 AM52 °FLight rain. Overcast.13 mph94%29.92 "Hg2 mi
12:50 AM52 °FLight rain. Mostly cloudy.15 mph94%29.92 "Hg2 mi
12:20 AM52 °FOvercast.16 mph94%29.92 "HgN/A
11:50 PM
Oct 23
52 °FDrizzle. Low clouds.17 mph100%29.92 "Hg2 mi
11:20 PM52 °FDrizzle. Low clouds.17 mph100%29.95 "HgN/A
10:50 PM52 °FLight rain. Passing clouds.16 mph100%29.95 "Hg5 mi
10:20 PM52 °FRain. Fog.17 mph100%29.95 "Hg2 mi
9:50 PM52 °FRain. Passing clouds.14 mph94%29.95 "Hg3 mi
9:20 PM52 °FLight rain. Passing clouds.14 mph94%29.95 "Hg6 mi
8:50 PM52 °FRain. Passing clouds.13 mph94%29.95 "Hg3 mi
8:20 PM52 °FLight rain. Low clouds.14 mph94%29.95 "Hg4 mi
7:50 PM52 °FRain. Passing clouds.17 mph94%29.95 "Hg5 mi
7:20 PM52 °FLight rain. Passing clouds.16 mph94%29.95 "Hg4 mi
6:50 PM50 °FRain. Passing clouds.16 mph100%29.98 "Hg4 mi
6:20 PM50 °FLight rain. Partly sunny.15 mph100%29.98 "Hg3 mi
5:50 PM50 °FDrizzle. Low clouds.15 mph94%29.98 "Hg2 mi
5:20 PM48 °FLight rain. Fog.14 mph100%29.98 "Hg2 mi
Weather by CustomWeather, © 2014

See weather overviewHow to use our weather pages